User: anonymous   Login
Location: R�o Medio
(42.4667°N, 3.0167°W)
Time: 21:28:53
(UTC+00:00)
Language:

Meteor 1-19 Rocket - Orbit

View from above orbital plane
View from above orbital plane
View from above satellite
View from above satellite

Ground track
Ground track

The orbit data is extracted from the following two-line orbital elements,

1  7493U 74083B   20158.42934313 -.00000000 +00000-0 -66829-5 0  9998
2  7493 081.1628 179.2103 0074582 295.3238 064.0218 14.07589814341165
Epoch (UTC): 06 June 2020 10:18:15
Eccentricity: 0.0074582
inclination: 81.1628°
perigee height: 813 km
apogee height: 921 km
right ascension of ascending node: 179.2103°
argument of perigee: 295.3238°
revolutions per day: 14.07589814
mean anomaly at epoch: 64.0218°
orbit number at epoch: 34116

The dashed part of the orbit path shows where the satellite is in the earth's shadow,  

DLR